Flag for Montenegro Weather past 2 weeks in Nikšić, Montenegro

Now
37 °F

Passing clouds.


Feels Like: 37 °F
Forecast: 22 / 40 °F
Wind: 2 mph from Northwest

Location: Niksic

Current Time: Jan 27, 2015 at 11:35:16 AM

Latest Report: Jan 27, 2015 at 10:00 AM


Visibility: 13 mi

Pressure: 29.93 "Hg

Humidity: 91%

Dew point: 35 °F

Location of NikšićLocation

Historic Weather in Nikšić — Graph

°F

Nikšić temperature yesterday

Maximum temperature yesterday: 44 °F (at 1:00 PM)
Minimum temperature yesterday: 32 °F (at 7:00 AM)
Average temperature yesterday: 37 °F

Past Weeks' High & Low Weather Summary

 TemperatureHumidityPressure
High53 °F (Jan 15, 3:00 PM)100% (Jan 13, 4:00 AM)30.56 "Hg (Jan 13, 4:00 AM)
Low20 °F (Jan 14, 7:00 AM)33% (Jan 14, 2:00 PM)29.64 "Hg (Jan 24, 2:00 PM)
Average39 °F88%30.07 "Hg
* Reported Jan 12 10:00 AM — Jan 27 10:00 AM, Nikšić, Weather by CustomWeather, © 2014

Note: Actual official high and low records may vary slightly from our data, if they occured in-between our weather recording intervals... More about our weather records

Advertising

Nikšić weather history for previous 24 hours

 ConditionsComfort  
Time TempWeatherWind HumidityBarometerVisibility
10:00 AM
Jan 27
37 °FPassing clouds.2 mph91%29.93 "Hg12 mi
9:00 AM33 °FScattered clouds.2 mph99%29.97 "Hg12 mi
8:00 AM29 °FScattered clouds.3 mph99%29.99 "Hg12 mi
7:00 AM29 °FPassing clouds.3 mph99%29.99 "Hg12 mi
6:00 AM29 °FClear.3 mph98%30.00 "Hg12 mi
5:00 AM30 °FClear.3 mph100%30.01 "Hg12 mi
4:00 AM31 °FClear.3 mph98%30.02 "Hg12 mi
1:00 AM33 °FClear.3 mph89%30.09 "Hg12 mi
10:00 PM
Jan 26
33 °FClear.3 mph87%30.09 "Hg12 mi
9:00 PM34 °FClear.5 mph85%30.09 "Hg12 mi
8:00 PM34 °FPassing clouds.3 mph84%30.09 "Hg12 mi
7:00 PM35 °FPassing clouds.5 mph81%30.09 "Hg12 mi
6:00 PM36 °FPassing clouds.3 mph77%30.09 "Hg12 mi
5:00 PM38 °FOvercast.5 mph68%30.07 "Hg12 mi
4:00 PM40 °FPartly sunny.3 mph61%30.05 "Hg12 mi
3:00 PM41 °FPartly sunny.5 mph58%30.04 "Hg12 mi
2:00 PM44 °FScattered clouds.6 mph50%30.02 "Hg12 mi
1:00 PM44 °FScattered clouds.6 mph50%30.03 "Hg12 mi
12:00 PM42 °FPassing clouds.5 mph52%30.05 "Hg12 mi
11:00 AM41 °FPassing clouds.5 mph53%30.07 "Hg12 mi
Weather by CustomWeather, © 2014

See weather overviewHow to use our weather pages